Location: Karcze
(52.0945°N, 22.4786°E)
Time: 03:58:43
(UTC+00:00)

Transit 2A Rocket - Pass Details

Date: 05 August 2021
Orbit: 586 x 916 km, 66.7° (Epoch: 21 September)

Event Time Altitude Azimuth Distance (km) Brightness Sun altitude
Rises 21:21:31 0° 312° (NW) 3,300 9.3 -19.3°
Reaches altitude 10° 21:24:25 10° 297° (WNW) 2,424 8.2 -19.4°
Maximum altitude 21:28:29 21° 251° (WSW) 1,842 6.9 -19.6°
Enters shadow 21:30:58 16° 219° (SW) 2,121 7.0 -19.7°
Drops below altitude 10° 21:32:43 10° 205° (SSW) 2,542 - -19.8°
Sets 21:35:51 0° 190° (S) 3,510 - -20.0°
